[[{"header":{"parameterUnit":"m.s-1","parameterCategory":1,"la1":30.2992,"la2":30.254,"lo1":-89.0895,"lo2":-89.0443,"dy":0.0025,"dx":0.0025,"nx":19,"ny":19,"refTime":"2026-05-09T03:00:00:Z","depth":0,"parameterNumber":2,"parameterNumberName":"U-component_of_WINDS"},"data":[0,0,0,0.4599,0.4601,0.4708,0.4708,0.4835,0.4836,0,0,0,0,0,0,0,0,0,0,0,0.4563,0.4563,0.4599,0.4601,0.4708,0.4708,0.4835,0.4836,0,0,0,0,0,0,0,0,0,0,0,0.4562,0.4563,0.4564,0.4602,0.4708,0.4708,0.4835,0.4757,0,0,0,0,0,0,0,0,0,0,0.4655,0.4617,0.4563,0.4564,0.4602,0.4708,0.4708,0.4754,0.4762,0.4783,0,0.4801,0,0.482,0.4844,0.4844,0,0,0,0.4605,0.461,0.4643,0.4564,0.4603,0.4707,0.4661,0.4759,0.4768,0.4794,0.4803,0.4808,0.4822,0.4845,0.4845,0.4955,0.4955,0,0,0.4599,0.4579,0.4637,0.4649,0.4633,0.4657,0.4664,0.4764,0.4772,0.4803,0.4811,0.4825,0.4846,0.4846,0.4954,0.4955,0,0,0,0.458,0.4575,0.4606,0.4644,0.4664,0.466,0.4668,0.4768,0.478,0.4812,0.4826,0.4846,0.4848,0.4954,0.4954,0.4952,0,0,0,0.4576,0.4563,0.4603,0.4592,0.4662,0.4717,0.4669,0.4773,0.4785,0.4825,0.4846,0.4849,0.4954,0.4954,0.4951,0.4954,0,0,0,0.4557,0.4561,0.4575,0.459,0.4636,0.4716,0.4734,0.4776,0.4793,0.4844,0.4849,0.4953,0.4954,0.4951,0.4953,0.4977,0,0,0,0.4531,0.4571,0.4575,0.4625,0.4634,0.4714,0.4734,0.4794,0.4838,0.4847,0.4954,0.4954,0.4951,0.4953,0.4976,0.4993,0.4998,0,0,0.4571,0.4576,0.4607,0.4613,0.4687,0.47,0.4773,0.4832,0.4855,0.492,0.4923,0.4952,0.4953,0.4977,0.5035,0.5039,0,0,0,0.4613,0.4635,0.4659,0.47,0.4746,0.4786,0.4836,0.4857,0.4914,0.4885,0.4967,0.4969,0.4983,0.4992,0.4996,0.5009,0.4958,0.4958,0.4958,0.464,0.4668,0.4721,0.4761,0.4801,0.4852,0.4886,0.4924,0.494,0.4959,0.4978,0.501,0.502,0.5023,0.5036,0.499,0.499,0.499,0.499,0.4701,0.4736,0.4757,0.4816,0.4844,0.4894,0.4944,0.4954,0.5004,0.4998,0.5012,0.5003,0.5026,0.504,0.499,0.499,0.499,0.499,0.499,0.4722,0.4743,0.4769,0.4831,0.4876,0.4915,0.4962,0.4986,0.5009,0.5023,0.5046,0.5046,0.5048,0.5032,0.5032,0.5032,0.5033,0.5033,0.5033,0.4732,0.4762,0.4799,0.4851,0.4881,0.4922,0.4973,0.5002,0.5041,0.5055,0.5055,0.5068,0.5024,0.5012,0.5035,0.5034,0.5034,0.5034,0.5034,0.4783,0.4775,0.4832,0.4862,0.4925,0.4967,0.4997,0.5054,0.5082,0.5104,0.5115,0.5078,0.5084,0.5082,0.5072,0.5109,0.5109,0.5109,0.5109,0.48,0.4806,0.4869,0.4914,0.4961,0.4995,0.5057,0.5097,0.5137,0.5155,0.5153,0.5142,0.5139,0.5147,0.5143,0.5134,0.5187,0.5187,0.5187,0.4832,0.4843,0.4892,0.4932,0.4983,0.5026,0.5085,0.5135,0.5179,0.5191,0.517,0.5167,0.5149,0.5142,0.5153,0.5147,0.5131,0,0]},{"header":{"parameterUnit":"m.s-1","parameterCategory":1,"la1":30.2992,"la2":30.254,"lo1":-89.0895,"lo2":-89.0443,"dy":0.0025,"dx":0.0025,"nx":19,"ny":19,"refTime":"2026-05-09T03:00:00:Z","depth":0,"parameterNumber":3,"parameterNumberName":"V-component_of_WINDS"},"data":[0,0,0,3.8957,3.896,3.9091,3.9092,3.9264,3.9266,0,0,0,0,0,0,0,0,0,0,0,3.8923,3.8924,3.8956,3.896,3.9091,3.9092,3.9264,3.9266,0,0,0,0,0,0,0,0,0,0,0,3.8922,3.8924,3.8925,3.896,3.9091,3.9092,3.9264,3.9162,0,0,0,0,0,0,0,0,0,0,3.9033,3.9007,3.8923,3.8925,3.8961,3.9091,3.9092,3.9157,3.9169,3.9207,0,3.9245,0,3.9259,3.9278,3.9279,0,0,0,3.8955,3.8998,3.9029,3.8926,3.8962,3.9091,3.9031,3.9163,3.9176,3.9222,3.9248,3.9254,3.9261,3.9279,3.928,3.9524,3.9526,0,0,3.8948,3.8948,3.9021,3.9038,3.9021,3.9027,3.9035,3.9171,3.9198,3.9248,3.9258,3.9264,3.928,3.9282,3.9523,3.9525,0,0,0,3.893,3.8943,3.8971,3.9031,3.9055,3.903,3.904,3.9191,3.9201,3.9259,3.9266,3.9281,3.9284,3.9522,3.9524,3.9593,0,0,0,3.8926,3.8933,3.8968,3.8969,3.9052,3.9125,3.9058,3.9191,3.9207,3.9265,3.9281,3.9285,3.952,3.9523,3.9588,3.9625,0,0,0,3.8912,3.8931,3.8952,3.8969,3.9026,3.9123,3.914,3.9195,3.9211,3.9279,3.9286,3.9519,3.9522,3.9583,3.9618,3.9691,0,0,0,3.8897,3.9009,3.8953,3.9081,3.9025,3.9165,3.9139,3.9243,3.9309,3.9282,3.952,3.9524,3.9582,3.9613,3.9686,3.9754,3.9782,0,0,3.9039,3.9026,3.9102,3.9055,3.9206,3.9145,3.9305,3.9363,3.9368,3.9471,3.9477,3.9589,3.9617,3.969,3.9936,3.9959,0,0,0,3.9146,3.9201,3.9241,3.9305,3.9355,3.94,3.9435,3.9457,3.9545,3.9422,3.9635,3.9651,3.9694,3.9726,3.9745,3.9782,3.9538,3.9538,3.9538,3.9347,3.935,3.9474,3.9493,3.9556,3.9592,3.9642,3.9677,3.9659,3.9709,3.974,3.989,3.9928,3.9942,3.9981,3.9775,3.9775,3.9775,3.9776,3.9556,3.9634,3.9609,3.9722,3.9723,3.9817,3.9855,3.984,3.9926,3.9866,3.9904,3.9839,3.9967,4.0,3.9781,3.978,3.9779,3.9779,3.9778,3.9688,3.9726,3.9753,3.9847,3.9919,3.9933,4.0018,4.0015,4.0012,4.0049,4.0083,4.0082,4.0081,4.0065,4.0066,4.0066,4.0067,4.0067,4.0068,3.9816,3.9844,3.9918,3.9981,4.0023,4.0077,4.0114,4.0154,4.0198,4.0188,4.0189,4.0166,3.9978,3.9932,4.0076,4.0074,4.0073,4.0072,4.0072,4.0029,3.9981,4.0095,4.0138,4.0212,4.0284,4.0279,4.0362,4.0394,4.0436,4.0406,4.0267,4.0253,4.0238,4.02,4.0404,4.0404,4.0404,4.0404,4.0143,4.0136,4.0253,4.0321,4.0386,4.0394,4.0522,4.0552,4.0574,4.0594,4.0564,4.0512,4.0497,4.0492,4.0472,4.0436,4.0696,4.0696,4.0697,4.0274,4.0274,4.0385,4.0409,4.0467,4.0517,4.0637,4.0714,4.0729,4.0708,4.061,4.0598,4.0515,4.0487,4.0465,4.0433,4.0368,0,0]}]]